TIANMU-1 03

Last updated on Thu Nov 21 2024 00:02:20 GMT+0000 (Coordinated Universal Time)

1 55973U 23039A 24325.56494496 .00017221 00000+0 63170-3 0 9991 2 55973 97.4826 115.9209 0004482 359.3638 0.7595 15.28028087 92681
UTC large
Height (km)
Speed (km/s)
/
Latitude / Longitude
Inclination (degrees)
Orbital Period (minutes)
Azimuth
Elevation
Range (km)
Doppler Factor

Next 0 passes for location: London (51.5072 / 0.1276)

Sorry there are no passes over London.